Time,TemperatureF,DewpointF,PressureIn,WindDirection,WindDirectionDegrees,WindSpeedMPH,WindSpeedGustMPH,Humidity,HourlyPrecipIn,Conditions,Clouds,dailyrainin,SoftwareType,DateUTC
2013-04-22 00:02:00,42.5,38.0,30.16,ENE,68,15.0,-999.0,84,0.00,,,0.26,Wunderground v.1.15,2013-04-22 05:02:00,
2013-04-22 00:07:00,42.5,38.0,30.16,ENE,68,15.0,-999.0,84,0.00,,,0.26,Wunderground v.1.15,2013-04-22 05:07:00,
2013-04-22 00:12:00,42.5,38.0,30.16,ENE,68,15.0,-999.0,84,0.00,,,0.26,Wunderground v.1.15,2013-04-22 05:12:00,
2013-04-22 00:17:00,42.5,38.0,30.16,ENE,68,15.0,-999.0,84,0.00,,,0.26,Wunderground v.1.15,2013-04-22 05:17:00,
2013-04-22 00:22:00,42.5,38.0,30.16,ENE,68,15.0,-999.0,84,0.00,,,0.26,Wunderground v.1.15,2013-04-22 05:22:00,
2013-04-22 00:27:00,42.5,38.0,30.16,ENE,68,15.0,-999.0,84,0.00,,,0.26,Wunderground v.1.15,2013-04-22 05:27:00,
2013-04-22 00:32:00,42.5,38.0,30.16,ENE,68,15.0,-999.0,84,0.00,,,0.26,Wunderground v.1.15,2013-04-22 05:32:00,
2013-04-22 00:37:00,42.5,38.0,30.16,ENE,68,15.0,-999.0,84,0.00,,,0.26,Wunderground v.1.15,2013-04-22 05:37:00,
2013-04-22 00:42:00,42.5,38.0,30.16,ENE,68,15.0,-999.0,84,0.00,,,0.26,Wunderground v.1.15,2013-04-22 05:42:00,
2013-04-22 00:47:00,41.6,37.1,30.17,NE,45,14.0,-999.0,84,0.00,,,0.26,Wunderground v.1.15,2013-04-22 05:47:00,
2013-04-22 00:52:00,41.6,37.1,30.17,NE,45,14.0,-999.0,84,0.00,,,0.26,Wunderground v.1.15,2013-04-22 05:52:00,
2013-04-22 00:57:00,41.6,37.1,30.17,NE,45,14.0,-999.0,84,0.00,,,0.26,Wunderground v.1.15,2013-04-22 05:57:00,
2013-04-22 01:02:00,41.6,37.1,30.17,NE,45,14.0,-999.0,84,0.00,,,0.26,Wunderground v.1.15,2013-04-22 06:02:00,
2013-04-22 01:07:00,41.6,37.1,30.17,NE,45,14.0,-999.0,84,0.00,,,0.26,Wunderground v.1.15,2013-04-22 06:07:00,
2013-04-22 01:12:00,41.6,37.1,30.17,NE,45,14.0,-999.0,84,0.00,,,0.26,Wunderground v.1.15,2013-04-22 06:12:00,
2013-04-22 01:17:00,41.4,37.2,30.17,ENE,68,13.0,-999.0,85,0.00,,,0.26,Wunderground v.1.15,2013-04-22 06:17:00,
2013-04-22 01:22:00,41.4,37.2,30.17,ENE,68,13.0,-999.0,85,0.00,,,0.26,Wunderground v.1.15,2013-04-22 06:22:00,
2013-04-22 01:27:00,41.4,37.2,30.17,ENE,68,13.0,-999.0,85,0.00,,,0.26,Wunderground v.1.15,2013-04-22 06:27:00,
2013-04-22 01:32:00,41.4,37.2,30.17,ENE,68,13.0,-999.0,85,0.00,,,0.26,Wunderground v.1.15,2013-04-22 06:32:00,
2013-04-22 01:37:00,41.4,37.2,30.17,ENE,68,13.0,-999.0,85,0.00,,,0.26,Wunderground v.1.15,2013-04-22 06:37:00,
2013-04-22 01:42:00,41.4,37.2,30.17,ENE,68,13.0,-999.0,85,0.00,,,0.26,Wunderground v.1.15,2013-04-22 06:42:00,
2013-04-22 01:47:00,41.4,37.2,30.18,East,90,9.0,-999.0,85,0.00,,,0.26,Wunderground v.1.15,2013-04-22 06:47:00,
2013-04-22 01:52:00,41.4,37.2,30.18,East,90,9.0,-999.0,85,0.00,,,0.26,Wunderground v.1.15,2013-04-22 06:52:00,
2013-04-22 01:57:00,41.4,37.2,30.18,East,90,9.0,-999.0,85,0.00,,,0.26,Wunderground v.1.15,2013-04-22 06:57:00,
2013-04-22 02:02:00,41.4,37.2,30.18,East,90,9.0,-999.0,85,0.00,,,0.26,Wunderground v.1.15,2013-04-22 07:02:00,
2013-04-22 02:07:00,41.4,37.2,30.18,East,90,9.0,-999.0,85,0.00,,,0.26,Wunderground v.1.15,2013-04-22 07:07:00,
2013-04-22 02:12:00,41.4,37.2,30.18,East,90,9.0,-999.0,85,0.00,,,0.26,Wunderground v.1.15,2013-04-22 07:12:00,
2013-04-22 02:17:00,41.4,37.5,30.16,East,90,11.0,-999.0,86,0.01,,,0.26,Wunderground v.1.15,2013-04-22 07:17:00,
2013-04-22 02:22:00,41.4,37.5,30.16,East,90,11.0,-999.0,86,0.01,,,0.26,Wunderground v.1.15,2013-04-22 07:22:00,
2013-04-22 02:27:00,41.4,37.5,30.16,East,90,11.0,-999.0,86,0.01,,,0.26,Wunderground v.1.15,2013-04-22 07:27:00,
2013-04-22 02:32:00,41.4,37.5,30.16,East,90,11.0,-999.0,86,0.01,,,0.26,Wunderground v.1.15,2013-04-22 07:32:00,
2013-04-22 02:37:00,41.4,37.5,30.16,East,90,11.0,-999.0,86,0.01,,,0.26,Wunderground v.1.15,2013-04-22 07:37:00,
2013-04-22 02:42:00,41.4,37.5,30.16,East,90,11.0,-999.0,86,0.01,,,0.26,Wunderground v.1.15,2013-04-22 07:42:00,
2013-04-22 02:47:00,41.0,37.4,30.12,East,90,15.0,-999.0,87,0.01,,,0.26,Wunderground v.1.15,2013-04-22 07:47:00,
2013-04-22 02:52:00,41.0,37.4,30.12,East,90,15.0,-999.0,87,0.01,,,0.26,Wunderground v.1.15,2013-04-22 07:52:00,
2013-04-22 02:57:00,41.0,37.4,30.12,East,90,15.0,-999.0,87,0.01,,,0.26,Wunderground v.1.15,2013-04-22 07:57:00,
2013-04-22 03:02:00,41.0,37.4,30.12,East,90,15.0,-999.0,87,0.01,,,0.26,Wunderground v.1.15,2013-04-22 08:02:00,
2013-04-22 03:07:00,41.0,37.4,30.12,East,90,15.0,-999.0,87,0.01,,,0.26,Wunderground v.1.15,2013-04-22 08:07:00,
2013-04-22 03:12:00,41.0,37.4,30.12,East,90,15.0,-999.0,87,0.01,,,0.26,Wunderground v.1.15,2013-04-22 08:12:00,
2013-04-22 03:17:00,40.9,37.3,30.08,East,90,17.0,-999.0,87,0.00,,,0.26,Wunderground v.1.15,2013-04-22 08:17:00,
2013-04-22 03:22:00,40.9,37.3,30.08,East,90,17.0,-999.0,87,0.00,,,0.26,Wunderground v.1.15,2013-04-22 08:22:00,
2013-04-22 03:27:00,40.9,37.3,30.08,East,90,17.0,-999.0,87,0.00,,,0.26,Wunderground v.1.15,2013-04-22 08:27:00,
2013-04-22 03:32:00,40.9,37.3,30.08,East,90,17.0,-999.0,87,0.00,,,0.26,Wunderground v.1.15,2013-04-22 08:32:00,
2013-04-22 03:37:00,40.9,37.3,30.08,East,90,17.0,-999.0,87,0.00,,,0.26,Wunderground v.1.15,2013-04-22 08:37:00,
2013-04-22 03:42:00,40.9,37.3,30.08,East,90,17.0,-999.0,87,0.00,,,0.26,Wunderground v.1.15,2013-04-22 08:42:00,
2013-04-22 03:47:00,40.5,37.2,30.07,ENE,68,15.0,-999.0,88,0.00,,,0.26,Wunderground v.1.15,2013-04-22 08:47:00,
2013-04-22 03:52:00,40.5,37.2,30.07,ENE,68,15.0,-999.0,88,0.00,,,0.26,Wunderground v.1.15,2013-04-22 08:52:00,
2013-04-22 03:57:00,40.5,37.2,30.07,ENE,68,15.0,-999.0,88,0.00,,,0.26,Wunderground v.1.15,2013-04-22 08:57:00,
2013-04-22 04:02:00,40.5,37.2,30.07,ENE,68,15.0,-999.0,88,0.00,,,0.26,Wunderground v.1.15,2013-04-22 09:02:00,
2013-04-22 04:07:00,40.5,37.2,30.07,ENE,68,15.0,-999.0,88,0.00,,,0.26,Wunderground v.1.15,2013-04-22 09:07:00,
2013-04-22 04:12:00,40.5,37.2,30.07,ENE,68,15.0,-999.0,88,0.00,,,0.26,Wunderground v.1.15,2013-04-22 09:12:00,
2013-04-22 04:17:00,40.3,37.3,30.08,ENE,68,14.0,-999.0,89,0.00,,,0.26,Wunderground v.1.15,2013-04-22 09:17:00,
2013-04-22 04:22:00,40.3,37.3,30.08,ENE,68,14.0,-999.0,89,0.00,,,0.26,Wunderground v.1.15,2013-04-22 09:22:00,
2013-04-22 04:27:00,40.3,37.3,30.08,ENE,68,14.0,-999.0,89,0.00,,,0.26,Wunderground v.1.15,2013-04-22 09:27:00,
2013-04-22 04:32:00,40.3,37.3,30.08,ENE,68,14.0,-999.0,89,0.00,,,0.26,Wunderground v.1.15,2013-04-22 09:32:00,
2013-04-22 04:37:00,40.3,37.3,30.08,ENE,68,14.0,-999.0,89,0.00,,,0.26,Wunderground v.1.15,2013-04-22 09:37:00,
2013-04-22 04:42:00,40.3,37.3,30.08,ENE,68,14.0,-999.0,89,0.00,,,0.26,Wunderground v.1.15,2013-04-22 09:42:00,
2013-04-22 04:47:00,40.2,37.2,30.07,NE,45,11.0,-999.0,89,0.00,,,0.26,Wunderground v.1.15,2013-04-22 09:47:00,
2013-04-22 04:52:00,40.2,37.2,30.07,NE,45,11.0,-999.0,89,0.00,,,0.26,Wunderground v.1.15,2013-04-22 09:52:00,
2013-04-22 04:57:00,40.2,37.2,30.07,NE,45,11.0,-999.0,89,0.00,,,0.26,Wunderground v.1.15,2013-04-22 09:57:00,
2013-04-22 05:02:00,40.2,37.2,30.07,NE,45,11.0,-999.0,89,0.00,,,0.26,Wunderground v.1.15,2013-04-22 10:02:00,
2013-04-22 05:07:00,40.2,37.2,30.07,NE,45,11.0,-999.0,89,0.00,,,0.26,Wunderground v.1.15,2013-04-22 10:07:00,
2013-04-22 05:12:00,40.2,37.2,30.07,NE,45,11.0,-999.0,89,0.00,,,0.26,Wunderground v.1.15,2013-04-22 10:12:00,
2013-04-22 05:17:00,39.7,36.7,30.07,NE,45,13.0,-999.0,89,0.00,,,0.26,Wunderground v.1.15,2013-04-22 10:17:00,
2013-04-22 05:22:00,39.7,36.7,30.07,NE,45,13.0,-999.0,89,0.00,,,0.26,Wunderground v.1.15,2013-04-22 10:22:00,
2013-04-22 05:27:00,39.7,36.7,30.07,NE,45,13.0,-999.0,89,0.00,,,0.26,Wunderground v.1.15,2013-04-22 10:27:00,
2013-04-22 05:32:00,39.7,36.7,30.07,NE,45,13.0,-999.0,89,0.00,,,0.26,Wunderground v.1.15,2013-04-22 10:32:00,
2013-04-22 05:37:00,39.7,36.7,30.07,NE,45,13.0,-999.0,89,0.00,,,0.26,Wunderground v.1.15,2013-04-22 10:37:00,
2013-04-22 05:42:00,39.7,36.7,30.07,NE,45,13.0,-999.0,89,0.00,,,0.26,Wunderground v.1.15,2013-04-22 10:42:00,
2013-04-22 05:47:00,39.3,36.3,30.07,NE,45,14.0,-999.0,89,0.00,,,0.26,Wunderground v.1.15,2013-04-22 10:47:00,
2013-04-22 05:52:00,39.3,36.3,30.07,NE,45,14.0,-999.0,89,0.00,,,0.26,Wunderground v.1.15,2013-04-22 10:52:00,
2013-04-22 05:57:00,39.3,36.3,30.07,NE,45,14.0,-999.0,89,0.00,,,0.26,Wunderground v.1.15,2013-04-22 10:57:00,
2013-04-22 06:02:00,39.3,36.3,30.07,NE,45,14.0,-999.0,89,0.00,,,0.26,Wunderground v.1.15,2013-04-22 11:02:00,
2013-04-22 06:07:00,39.3,36.3,30.07,NE,45,14.0,-999.0,89,0.00,,,0.26,Wunderground v.1.15,2013-04-22 11:07:00,
2013-04-22 06:12:00,39.3,36.3,30.07,NE,45,14.0,-999.0,89,0.00,,,0.26,Wunderground v.1.15,2013-04-22 11:12:00,
2013-04-22 06:17:00,39.4,36.7,30.06,ENE,68,14.0,-999.0,90,0.00,,,0.26,Wunderground v.1.15,2013-04-22 11:17:00,
2013-04-22 06:22:00,39.4,36.7,30.06,ENE,68,14.0,-999.0,90,0.00,,,0.26,Wunderground v.1.15,2013-04-22 11:22:00,
2013-04-22 06:27:00,39.4,36.7,30.06,ENE,68,14.0,-999.0,90,0.00,,,0.26,Wunderground v.1.15,2013-04-22 11:27:00,
2013-04-22 06:32:00,39.4,36.7,30.06,ENE,68,14.0,-999.0,90,0.00,,,0.26,Wunderground v.1.15,2013-04-22 11:32:00,
2013-04-22 06:37:00,39.4,36.7,30.06,ENE,68,14.0,-999.0,90,0.00,,,0.26,Wunderground v.1.15,2013-04-22 11:37:00,
2013-04-22 06:42:00,39.4,36.7,30.06,ENE,68,14.0,-999.0,90,0.00,,,0.26,Wunderground v.1.15,2013-04-22 11:42:00,
2013-04-22 06:47:00,39.6,36.9,30.06,ENE,68,14.0,-999.0,90,0.00,,,0.26,Wunderground v.1.15,2013-04-22 11:47:00,
2013-04-22 06:52:00,39.6,36.9,30.06,ENE,68,14.0,-999.0,90,0.00,,,0.26,Wunderground v.1.15,2013-04-22 11:52:00,
2013-04-22 06:57:00,39.6,36.9,30.06,ENE,68,14.0,-999.0,90,0.00,,,0.26,Wunderground v.1.15,2013-04-22 11:57:00,
2013-04-22 07:02:00,39.6,36.9,30.06,ENE,68,14.0,-999.0,90,0.00,,,0.26,Wunderground v.1.15,2013-04-22 12:02:00,
2013-04-22 07:07:00,39.6,36.9,30.06,ENE,68,14.0,-999.0,90,0.00,,,0.26,Wunderground v.1.15,2013-04-22 12:07:00,
2013-04-22 07:12:00,39.6,36.9,30.06,ENE,68,14.0,-999.0,90,0.00,,,0.26,Wunderground v.1.15,2013-04-22 12:12:00,
2013-04-22 07:17:00,39.4,36.7,30.06,NE,45,12.0,-999.0,90,0.00,,,0.26,Wunderground v.1.15,2013-04-22 12:17:00,
2013-04-22 07:22:00,39.4,36.7,30.06,NE,45,12.0,-999.0,90,0.00,,,0.26,Wunderground v.1.15,2013-04-22 12:22:00,
2013-04-22 07:27:00,39.4,36.7,30.06,NE,45,12.0,-999.0,90,0.00,,,0.26,Wunderground v.1.15,2013-04-22 12:27:00,
2013-04-22 07:32:00,39.4,36.7,30.06,NE,45,12.0,-999.0,90,0.00,,,0.26,Wunderground v.1.15,2013-04-22 12:32:00,
2013-04-22 07:37:00,39.4,36.7,30.06,NE,45,12.0,-999.0,90,0.00,,,0.26,Wunderground v.1.15,2013-04-22 12:37:00,
2013-04-22 07:42:00,39.4,36.7,30.06,NE,45,12.0,-999.0,90,0.00,,,0.26,Wunderground v.1.15,2013-04-22 12:42:00,
2013-04-22 07:47:00,39.2,36.5,30.08,NNE,23,10.0,-999.0,90,0.00,,,0.26,Wunderground v.1.15,2013-04-22 12:47:00,
2013-04-22 07:52:00,39.2,36.5,30.08,NNE,23,10.0,-999.0,90,0.00,,,0.26,Wunderground v.1.15,2013-04-22 12:52:00,
2013-04-22 07:57:00,39.2,36.5,30.08,NNE,23,10.0,-999.0,90,0.00,,,0.26,Wunderground v.1.15,2013-04-22 12:57:00,
2013-04-22 08:02:00,39.2,36.5,30.08,NNE,23,10.0,-999.0,90,0.00,,,0.26,Wunderground v.1.15,2013-04-22 13:02:00,
2013-04-22 08:07:00,39.2,36.5,30.08,NNE,23,10.0,-999.0,90,0.00,,,0.26,Wunderground v.1.15,2013-04-22 13:07:00,
2013-04-22 08:12:00,39.2,36.5,30.08,NNE,23,10.0,-999.0,90,0.00,,,0.26,Wunderground v.1.15,2013-04-22 13:12:00,
2013-04-22 08:17:00,38.3,35.6,30.07,North,0,10.0,-999.0,90,0.00,,,0.26,Wunderground v.1.15,2013-04-22 13:17:00,
2013-04-22 08:22:00,38.3,35.6,30.07,North,0,10.0,-999.0,90,0.00,,,0.26,Wunderground v.1.15,2013-04-22 13:22:00,
2013-04-22 08:27:00,38.3,35.6,30.07,North,0,10.0,-999.0,90,0.00,,,0.26,Wunderground v.1.15,2013-04-22 13:27:00,
2013-04-22 08:32:00,38.3,35.6,30.07,North,0,10.0,-999.0,90,0.00,,,0.26,Wunderground v.1.15,2013-04-22 13:32:00,
2013-04-22 08:37:00,38.3,35.6,30.07,North,0,10.0,-999.0,90,0.00,,,0.26,Wunderground v.1.15,2013-04-22 13:37:00,
2013-04-22 08:42:00,38.3,35.6,30.07,North,0,10.0,-999.0,90,0.00,,,0.26,Wunderground v.1.15,2013-04-22 13:42:00,
2013-04-22 08:47:00,37.5,34.8,30.10,NNW,338,11.0,-999.0,90,0.07,,,0.26,Wunderground v.1.15,2013-04-22 13:47:00,
2013-04-22 08:52:00,37.5,34.8,30.10,NNW,338,11.0,-999.0,90,0.07,,,0.26,Wunderground v.1.15,2013-04-22 13:52:00,
2013-04-22 08:57:00,37.5,34.8,30.10,NNW,338,11.0,-999.0,90,0.07,,,0.26,Wunderground v.1.15,2013-04-22 13:57:00,
2013-04-22 09:02:00,37.5,34.8,30.10,NNW,338,11.0,-999.0,90,0.07,,,0.26,Wunderground v.1.15,2013-04-22 14:02:00,
2013-04-22 09:07:00,37.5,34.8,30.10,NNW,338,11.0,-999.0,90,0.07,,,0.26,Wunderground v.1.15,2013-04-22 14:07:00,
2013-04-22 09:12:00,37.5,34.8,30.10,NNW,338,11.0,-999.0,90,0.07,,,0.26,Wunderground v.1.15,2013-04-22 14:12:00,
2013-04-22 09:17:00,37.2,34.5,30.12,NNW,338,10.0,-999.0,90,0.14,,,0.26,Wunderground v.1.15,2013-04-22 14:17:00,
2013-04-22 09:22:00,37.2,34.5,30.12,NNW,338,10.0,-999.0,90,0.14,,,0.26,Wunderground v.1.15,2013-04-22 14:22:00,
2013-04-22 09:27:00,37.2,34.5,30.12,NNW,338,10.0,-999.0,90,0.14,,,0.26,Wunderground v.1.15,2013-04-22 14:27:00,
2013-04-22 09:32:00,37.2,34.5,30.12,NNW,338,10.0,-999.0,90,0.14,,,0.26,Wunderground v.1.15,2013-04-22 14:32:00,
2013-04-22 09:37:00,37.2,34.5,30.12,NNW,338,10.0,-999.0,90,0.14,,,0.26,Wunderground v.1.15,2013-04-22 14:37:00,
2013-04-22 09:42:00,37.2,34.5,30.12,NNW,338,10.0,-999.0,90,0.14,,,0.26,Wunderground v.1.15,2013-04-22 14:42:00,
2013-04-22 09:47:00,36.1,33.5,30.08,North,0,13.0,-999.0,90,0.16,,,0.26,Wunderground v.1.15,2013-04-22 14:47:00,
2013-04-22 09:52:00,36.1,33.5,30.08,North,0,13.0,-999.0,90,0.16,,,0.26,Wunderground v.1.15,2013-04-22 14:52:00,
2013-04-22 09:57:00,36.1,33.5,30.08,North,0,13.0,-999.0,90,0.16,,,0.26,Wunderground v.1.15,2013-04-22 14:57:00,
2013-04-22 10:02:00,36.1,33.5,30.08,North,0,13.0,-999.0,90,0.16,,,0.26,Wunderground v.1.15,2013-04-22 15:02:00,
2013-04-22 10:07:00,36.1,33.5,30.08,North,0,13.0,-999.0,90,0.16,,,0.26,Wunderground v.1.15,2013-04-22 15:07:00,
2013-04-22 10:12:00,36.1,33.5,30.08,North,0,13.0,-999.0,90,0.16,,,0.26,Wunderground v.1.15,2013-04-22 15:12:00,
2013-04-22 10:17:00,33.8,31.2,30.10,North,0,20.0,-999.0,90,0.10,,,0.26,Wunderground v.1.15,2013-04-22 15:17:00,
2013-04-22 10:22:00,33.8,31.2,30.10,North,0,20.0,-999.0,90,0.10,,,0.26,Wunderground v.1.15,2013-04-22 15:22:00,
2013-04-22 10:27:00,33.8,31.2,30.10,North,0,20.0,-999.0,90,0.10,,,0.26,Wunderground v.1.15,2013-04-22 15:27:00,
2013-04-22 10:32:00,33.8,31.2,30.10,North,0,20.0,-999.0,90,0.10,,,0.26,Wunderground v.1.15,2013-04-22 15:32:00,
2013-04-22 10:37:00,33.8,31.2,30.10,North,0,20.0,-999.0,90,0.10,,,0.26,Wunderground v.1.15,2013-04-22 15:37:00,
2013-04-22 10:42:00,33.8,31.2,30.10,North,0,20.0,-999.0,90,0.10,,,0.26,Wunderground v.1.15,2013-04-22 15:42:00,
2013-04-22 10:47:00,33.4,30.5,30.16,North,0,9.0,-999.0,89,0.02,,,0.26,Wunderground v.1.15,2013-04-22 15:47:00,
2013-04-22 10:52:00,33.4,30.5,30.16,North,0,9.0,-999.0,89,0.02,,,0.26,Wunderground v.1.15,2013-04-22 15:52:00,
2013-04-22 10:57:00,33.4,30.5,30.16,North,0,9.0,-999.0,89,0.02,,,0.26,Wunderground v.1.15,2013-04-22 15:57:00,
2013-04-22 11:02:00,33.4,30.5,30.16,North,0,9.0,-999.0,89,0.02,,,0.26,Wunderground v.1.15,2013-04-22 16:02:00,
2013-04-22 11:07:00,33.4,30.5,30.16,North,0,9.0,-999.0,89,0.02,,,0.26,Wunderground v.1.15,2013-04-22 16:07:00,
2013-04-22 11:12:00,33.4,30.5,30.16,North,0,9.0,-999.0,89,0.02,,,0.26,Wunderground v.1.15,2013-04-22 16:12:00,
2013-04-22 11:17:00,33.1,30.2,30.15,NNW,338,14.0,-999.0,89,0.01,,,0.26,Wunderground v.1.15,2013-04-22 16:17:00,
2013-04-22 11:22:00,33.1,30.2,30.15,NNW,338,14.0,-999.0,89,0.01,,,0.26,Wunderground v.1.15,2013-04-22 16:22:00,
2013-04-22 11:27:00,33.1,30.2,30.15,NNW,338,14.0,-999.0,89,0.01,,,0.26,Wunderground v.1.15,2013-04-22 16:27:00,
2013-04-22 11:32:00,33.1,30.2,30.15,NNW,338,14.0,-999.0,89,0.01,,,0.26,Wunderground v.1.15,2013-04-22 16:32:00,
2013-04-22 11:37:00,33.1,30.2,30.15,NNW,338,14.0,-999.0,89,0.01,,,0.26,Wunderground v.1.15,2013-04-22 16:37:00,
2013-04-22 11:42:00,33.1,30.2,30.15,NNW,338,14.0,-999.0,89,0.01,,,0.26,Wunderground v.1.15,2013-04-22 16:42:00,
2013-04-22 11:47:00,32.8,29.1,30.18,NNW,338,17.0,-999.0,86,0.00,,,0.26,Wunderground v.1.15,2013-04-22 16:47:00,
2013-04-22 11:52:00,32.8,29.1,30.18,NNW,338,17.0,-999.0,86,0.00,,,0.26,Wunderground v.1.15,2013-04-22 16:52:00,
2013-04-22 11:57:00,32.8,29.1,30.18,NNW,338,17.0,-999.0,86,0.00,,,0.26,Wunderground v.1.15,2013-04-22 16:57:00,
2013-04-22 12:02:00,32.8,29.1,30.18,NNW,338,17.0,-999.0,86,0.00,,,0.26,Wunderground v.1.15,2013-04-22 17:02:00,
2013-04-22 12:07:00,32.8,29.1,30.18,NNW,338,17.0,-999.0,86,0.00,,,0.26,Wunderground v.1.15,2013-04-22 17:07:00,
2013-04-22 12:12:00,32.8,29.1,30.18,NNW,338,17.0,-999.0,86,0.00,,,0.26,Wunderground v.1.15,2013-04-22 17:12:00,
2013-04-22 12:17:00,31.5,26.9,30.20,NNW,338,21.0,-999.0,83,0.00,,,0.26,Wunderground v.1.15,2013-04-22 17:17:00,
2013-04-22 12:22:00,31.5,26.9,30.20,NNW,338,21.0,-999.0,83,0.00,,,0.26,Wunderground v.1.15,2013-04-22 17:22:00,
2013-04-22 12:27:00,31.5,26.9,30.20,NNW,338,21.0,-999.0,83,0.00,,,0.26,Wunderground v.1.15,2013-04-22 17:27:00,
2013-04-22 12:32:00,31.5,26.9,30.20,NNW,338,21.0,-999.0,83,0.00,,,0.26,Wunderground v.1.15,2013-04-22 17:32:00,
2013-04-22 12:37:00,31.5,26.9,30.20,NNW,338,21.0,-999.0,83,0.00,,,0.26,Wunderground v.1.15,2013-04-22 17:37:00,
2013-04-22 12:42:00,31.5,26.9,30.20,NNW,338,21.0,-999.0,83,0.00,,,0.26,Wunderground v.1.15,2013-04-22 17:42:00,
2013-04-22 12:47:00,30.5,25.4,30.21,NNW,338,22.0,-999.0,81,0.00,,,0.26,Wunderground v.1.15,2013-04-22 17:47:00,
2013-04-22 12:52:00,30.5,25.4,30.21,NNW,338,22.0,-999.0,81,0.00,,,0.26,Wunderground v.1.15,2013-04-22 17:52:00,
2013-04-22 12:57:00,30.5,25.4,30.21,NNW,338,22.0,-999.0,81,0.00,,,0.26,Wunderground v.1.15,2013-04-22 17:57:00,
2013-04-22 13:02:00,30.5,25.4,30.21,NNW,338,22.0,-999.0,81,0.00,,,0.26,Wunderground v.1.15,2013-04-22 18:02:00,
2013-04-22 13:07:00,30.5,25.4,30.21,NNW,338,22.0,-999.0,81,0.00,,,0.26,Wunderground v.1.15,2013-04-22 18:07:00,
2013-04-22 13:12:00,30.5,25.4,30.21,NNW,338,22.0,-999.0,81,0.00,,,0.26,Wunderground v.1.15,2013-04-22 18:12:00,
2013-04-22 13:17:00,30.1,25.0,30.22,NNW,338,22.0,-999.0,81,0.00,,,0.26,Wunderground v.1.15,2013-04-22 18:17:00,
2013-04-22 13:22:00,30.1,25.0,30.22,NNW,338,22.0,-999.0,81,0.00,,,0.26,Wunderground v.1.15,2013-04-22 18:22:00,
2013-04-22 13:27:00,30.1,25.0,30.22,NNW,338,22.0,-999.0,81,0.00,,,0.26,Wunderground v.1.15,2013-04-22 18:27:00,
2013-04-22 13:32:00,30.1,25.0,30.22,NNW,338,22.0,-999.0,81,0.00,,,0.26,Wunderground v.1.15,2013-04-22 18:32:00,
2013-04-22 13:37:00,30.1,25.0,30.22,NNW,338,22.0,-999.0,81,0.00,,,0.26,Wunderground v.1.15,2013-04-22 18:37:00,
2013-04-22 13:42:00,30.1,25.0,30.22,NNW,338,22.0,-999.0,81,0.00,,,0.26,Wunderground v.1.15,2013-04-22 18:42:00,
2013-04-22 13:47:00,29.9,24.5,30.24,NNW,338,21.0,-999.0,80,0.00,,,0.26,Wunderground v.1.15,2013-04-22 18:47:00,
2013-04-22 13:52:00,29.9,24.5,30.24,NNW,338,21.0,-999.0,80,0.00,,,0.26,Wunderground v.1.15,2013-04-22 18:52:00,
2013-04-22 13:57:00,29.9,24.5,30.24,NNW,338,21.0,-999.0,80,0.00,,,0.26,Wunderground v.1.15,2013-04-22 18:57:00,
2013-04-22 14:02:00,29.9,24.5,30.24,NNW,338,21.0,-999.0,80,0.00,,,0.26,Wunderground v.1.15,2013-04-22 19:02:00,
2013-04-22 14:07:00,29.9,24.5,30.24,NNW,338,21.0,-999.0,80,0.00,,,0.26,Wunderground v.1.15,2013-04-22 19:07:00,
2013-04-22 14:12:00,29.9,24.5,30.24,NNW,338,21.0,-999.0,80,0.00,,,0.26,Wunderground v.1.15,2013-04-22 19:12:00,
2013-04-22 14:17:00,30.4,24.7,30.26,NNW,338,18.0,-999.0,79,0.00,,,0.26,Wunderground v.1.15,2013-04-22 19:17:00,
2013-04-22 14:22:00,30.4,24.7,30.26,NNW,338,18.0,-999.0,79,0.00,,,0.26,Wunderground v.1.15,2013-04-22 19:22:00,
2013-04-22 14:27:00,30.4,24.7,30.26,NNW,338,18.0,-999.0,79,0.00,,,0.26,Wunderground v.1.15,2013-04-22 19:27:00,
2013-04-22 14:32:00,30.4,24.7,30.26,NNW,338,18.0,-999.0,79,0.00,,,0.26,Wunderground v.1.15,2013-04-22 19:32:00,
2013-04-22 14:37:00,30.4,24.7,30.26,NNW,338,18.0,-999.0,79,0.00,,,0.26,Wunderground v.1.15,2013-04-22 19:37:00,
2013-04-22 14:42:00,30.4,24.7,30.26,NNW,338,18.0,-999.0,79,0.00,,,0.26,Wunderground v.1.15,2013-04-22 19:42:00,
2013-04-22 14:47:00,31.0,24.9,30.27,NNW,338,20.0,-999.0,78,0.00,,,0.26,Wunderground v.1.15,2013-04-22 19:47:00,
2013-04-22 14:52:00,31.0,24.9,30.27,NNW,338,20.0,-999.0,78,0.00,,,0.26,Wunderground v.1.15,2013-04-22 19:52:00,
2013-04-22 14:57:00,31.0,24.9,30.27,NNW,338,20.0,-999.0,78,0.00,,,0.26,Wunderground v.1.15,2013-04-22 19:57:00,
2013-04-22 15:02:00,31.0,24.9,30.27,NNW,338,20.0,-999.0,78,0.00,,,0.26,Wunderground v.1.15,2013-04-22 20:02:00,
2013-04-22 15:07:00,31.0,24.9,30.27,NNW,338,20.0,-999.0,78,0.00,,,0.26,Wunderground v.1.15,2013-04-22 20:07:00,
2013-04-22 15:12:00,31.0,24.9,30.27,NNW,338,20.0,-999.0,78,0.00,,,0.26,Wunderground v.1.15,2013-04-22 20:12:00,
2013-04-22 15:17:00,31.5,24.5,30.29,NNW,338,21.0,-999.0,75,0.00,,,0.26,Wunderground v.1.15,2013-04-22 20:17:00,
2013-04-22 15:22:00,31.5,24.5,30.29,NNW,338,21.0,-999.0,75,0.00,,,0.26,Wunderground v.1.15,2013-04-22 20:22:00,
2013-04-22 15:27:00,31.5,24.5,30.29,NNW,338,21.0,-999.0,75,0.00,,,0.26,Wunderground v.1.15,2013-04-22 20:27:00,
2013-04-22 15:32:00,31.5,24.5,30.29,NNW,338,21.0,-999.0,75,0.00,,,0.26,Wunderground v.1.15,2013-04-22 20:32:00,
2013-04-22 15:37:00,31.5,24.5,30.29,NNW,338,21.0,-999.0,75,0.00,,,0.26,Wunderground v.1.15,2013-04-22 20:37:00,
2013-04-22 15:42:00,31.5,24.5,30.29,NNW,338,21.0,-999.0,75,0.00,,,0.26,Wunderground v.1.15,2013-04-22 20:42:00,
2013-04-22 15:47:00,31.2,24.5,30.30,NNW,338,22.0,-999.0,76,0.00,,,0.26,Wunderground v.1.15,2013-04-22 20:47:00,
2013-04-22 15:52:00,31.2,24.5,30.30,NNW,338,22.0,-999.0,76,0.00,,,0.26,Wunderground v.1.15,2013-04-22 20:52:00,
2013-04-22 15:57:00,31.2,24.5,30.30,NNW,338,22.0,-999.0,76,0.00,,,0.26,Wunderground v.1.15,2013-04-22 20:57:00,
2013-04-22 16:02:00,31.2,24.5,30.30,NNW,338,22.0,-999.0,76,0.00,,,0.26,Wunderground v.1.15,2013-04-22 21:02:00,
2013-04-22 16:07:00,31.2,24.5,30.30,NNW,338,22.0,-999.0,76,0.00,,,0.26,Wunderground v.1.15,2013-04-22 21:07:00,
2013-04-22 16:12:00,31.2,24.5,30.30,NNW,338,22.0,-999.0,76,0.00,,,0.26,Wunderground v.1.15,2013-04-22 21:12:00,
2013-04-22 16:17:00,29.9,24.2,30.32,NNW,338,22.0,-999.0,79,0.00,,,0.26,Wunderground v.1.15,2013-04-22 21:17:00,
2013-04-22 16:22:00,29.9,24.2,30.32,NNW,338,22.0,-999.0,79,0.00,,,0.26,Wunderground v.1.15,2013-04-22 21:22:00,
2013-04-22 16:27:00,29.9,24.2,30.32,NNW,338,22.0,-999.0,79,0.00,,,0.26,Wunderground v.1.15,2013-04-22 21:27:00,
2013-04-22 16:32:00,29.9,24.2,30.32,NNW,338,22.0,-999.0,79,0.00,,,0.26,Wunderground v.1.15,2013-04-22 21:32:00,
2013-04-22 16:37:00,29.9,24.2,30.32,NNW,338,22.0,-999.0,79,0.00,,,0.26,Wunderground v.1.15,2013-04-22 21:37:00,
2013-04-22 16:42:00,29.9,24.2,30.32,NNW,338,22.0,-999.0,79,0.00,,,0.26,Wunderground v.1.15,2013-04-22 21:42:00,
2013-04-22 16:47:00,29.1,23.7,30.33,NNW,338,22.0,-999.0,80,0.00,,,0.26,Wunderground v.1.15,2013-04-22 21:47:00,
2013-04-22 16:52:00,29.1,23.7,30.33,NNW,338,22.0,-999.0,80,0.00,,,0.26,Wunderground v.1.15,2013-04-22 21:52:00,
2013-04-22 16:57:00,29.1,23.7,30.33,NNW,338,22.0,-999.0,80,0.00,,,0.26,Wunderground v.1.15,2013-04-22 21:57:00,
2013-04-22 17:02:00,29.1,23.7,30.33,NNW,338,22.0,-999.0,80,0.00,,,0.26,Wunderground v.1.15,2013-04-22 22:02:00,
2013-04-22 17:07:00,29.1,23.7,30.33,NNW,338,22.0,-999.0,80,0.00,,,0.26,Wunderground v.1.15,2013-04-22 22:07:00,
2013-04-22 17:12:00,29.1,23.7,30.33,NNW,338,22.0,-999.0,80,0.00,,,0.26,Wunderground v.1.15,2013-04-22 22:12:00,
2013-04-22 17:17:00,29.8,23.5,30.34,NNW,338,21.0,-999.0,77,0.00,,,0.26,Wunderground v.1.15,2013-04-22 22:17:00,
2013-04-22 17:22:00,29.8,23.5,30.34,NNW,338,21.0,-999.0,77,0.00,,,0.26,Wunderground v.1.15,2013-04-22 22:22:00,
2013-04-22 17:27:00,29.8,23.5,30.34,NNW,338,21.0,-999.0,77,0.00,,,0.26,Wunderground v.1.15,2013-04-22 22:27:00,
2013-04-22 17:32:00,29.8,23.5,30.34,NNW,338,21.0,-999.0,77,0.00,,,0.26,Wunderground v.1.15,2013-04-22 22:32:00,
2013-04-22 17:37:00,29.8,23.5,30.34,NNW,338,21.0,-999.0,77,0.00,,,0.26,Wunderground v.1.15,2013-04-22 22:37:00,
2013-04-22 17:42:00,29.8,23.5,30.34,NNW,338,21.0,-999.0,77,0.00,,,0.26,Wunderground v.1.15,2013-04-22 22:42:00,
2013-04-22 17:47:00,30.1,23.1,30.34,NNW,338,22.0,-999.0,75,0.00,,,0.26,Wunderground v.1.15,2013-04-22 22:47:00,
2013-04-22 17:52:00,30.1,23.1,30.34,NNW,338,22.0,-999.0,75,0.00,,,0.26,Wunderground v.1.15,2013-04-22 22:52:00,
2013-04-22 17:57:00,30.1,23.1,30.34,NNW,338,22.0,-999.0,75,0.00,,,0.26,Wunderground v.1.15,2013-04-22 22:57:00,
2013-04-22 18:02:00,30.1,23.1,30.34,NNW,338,22.0,-999.0,75,0.00,,,0.26,Wunderground v.1.15,2013-04-22 23:02:00,
2013-04-22 18:07:00,30.1,23.1,30.34,NNW,338,22.0,-999.0,75,0.00,,,0.26,Wunderground v.1.15,2013-04-22 23:07:00,
2013-04-22 18:12:00,30.1,23.1,30.34,NNW,338,22.0,-999.0,75,0.00,,,0.26,Wunderground v.1.15,2013-04-22 23:12:00,
2013-04-22 18:17:00,30.3,24.0,30.38,NNW,338,20.0,-999.0,77,0.00,,,0.26,Wunderground v.1.15,2013-04-22 23:17:00,
2013-04-22 18:22:00,30.3,24.0,30.38,NNW,338,20.0,-999.0,77,0.00,,,0.26,Wunderground v.1.15,2013-04-22 23:22:00,
2013-04-22 18:27:00,30.3,24.0,30.38,NNW,338,20.0,-999.0,77,0.00,,,0.26,Wunderground v.1.15,2013-04-22 23:27:00,
2013-04-22 18:32:00,30.3,24.0,30.38,NNW,338,20.0,-999.0,77,0.00,,,0.26,Wunderground v.1.15,2013-04-22 23:32:00,
2013-04-22 18:37:00,30.3,24.0,30.38,NNW,338,20.0,-999.0,77,0.00,,,0.26,Wunderground v.1.15,2013-04-22 23:37:00,
2013-04-22 18:42:00,30.3,24.0,30.38,NNW,338,20.0,-999.0,77,0.00,,,0.26,Wunderground v.1.15,2013-04-22 23:42:00,
2013-04-22 18:47:00,30.0,23.7,30.39,NNW,338,20.0,-999.0,77,0.00,,,0.26,Wunderground v.1.15,2013-04-22 23:47:00,
2013-04-22 18:52:00,30.0,23.7,30.39,NNW,338,20.0,-999.0,77,0.00,,,0.26,Wunderground v.1.15,2013-04-22 23:52:00,
2013-04-22 18:57:00,30.0,23.7,30.39,NNW,338,20.0,-999.0,77,0.00,,,0.26,Wunderground v.1.15,2013-04-22 23:57:00,
2013-04-22 19:02:00,30.0,23.7,30.39,NNW,338,20.0,-999.0,77,0.00,,,0.26,Wunderground v.1.15,2013-04-23 00:02:00,
2013-04-22 19:07:00,30.0,23.7,30.39,NNW,338,20.0,-999.0,77,0.00,,,0.26,Wunderground v.1.15,2013-04-23 00:07:00,
2013-04-22 19:12:00,30.0,23.7,30.39,NNW,338,20.0,-999.0,77,0.00,,,0.26,Wunderground v.1.15,2013-04-23 00:12:00,
2013-04-22 19:17:00,29.7,23.1,30.40,NNW,338,19.0,-999.0,76,0.00,,,0.26,Wunderground v.1.15,2013-04-23 00:17:00,
2013-04-22 19:22:00,29.7,23.1,30.40,NNW,338,19.0,-999.0,76,0.00,,,0.26,Wunderground v.1.15,2013-04-23 00:22:00,
2013-04-22 19:27:00,29.7,23.1,30.40,NNW,338,19.0,-999.0,76,0.00,,,0.26,Wunderground v.1.15,2013-04-23 00:27:00,
2013-04-22 19:32:00,29.7,23.1,30.40,NNW,338,19.0,-999.0,76,0.00,,,0.26,Wunderground v.1.15,2013-04-23 00:32:00,
2013-04-22 19:37:00,29.7,23.1,30.40,NNW,338,19.0,-999.0,76,0.00,,,0.26,Wunderground v.1.15,2013-04-23 00:37:00,
2013-04-22 19:42:00,29.7,23.1,30.40,NNW,338,19.0,-999.0,76,0.00,,,0.26,Wunderground v.1.15,2013-04-23 00:42:00,
2013-04-22 19:47:00,29.4,23.1,30.41,NNW,338,21.0,-999.0,77,0.00,,,0.26,Wunderground v.1.15,2013-04-23 00:47:00,
2013-04-22 19:52:00,29.4,23.1,30.41,NNW,338,21.0,-999.0,77,0.00,,,0.26,Wunderground v.1.15,2013-04-23 00:52:00,
2013-04-22 19:57:00,29.4,23.1,30.41,NNW,338,21.0,-999.0,77,0.00,,,0.26,Wunderground v.1.15,2013-04-23 00:57:00,
2013-04-22 20:02:00,29.4,23.1,30.41,NNW,338,21.0,-999.0,77,0.00,,,0.26,Wunderground v.1.15,2013-04-23 01:02:00,
2013-04-22 20:07:00,29.4,23.1,30.41,NNW,338,21.0,-999.0,77,0.00,,,0.26,Wunderground v.1.15,2013-04-23 01:07:00,
2013-04-22 20:12:00,29.4,23.1,30.41,NNW,338,21.0,-999.0,77,0.00,,,0.26,Wunderground v.1.15,2013-04-23 01:12:00,
2013-04-22 20:17:00,29.3,22.4,30.40,NNW,338,20.0,-999.0,75,0.00,,,0.26,Wunderground v.1.15,2013-04-23 01:17:00,
2013-04-22 20:22:00,29.3,22.4,30.40,NNW,338,20.0,-999.0,75,0.00,,,0.26,Wunderground v.1.15,2013-04-23 01:22:00,
2013-04-22 20:27:00,29.3,22.4,30.40,NNW,338,20.0,-999.0,75,0.00,,,0.26,Wunderground v.1.15,2013-04-23 01:27:00,
2013-04-22 20:32:00,29.3,22.4,30.40,NNW,338,20.0,-999.0,75,0.00,,,0.26,Wunderground v.1.15,2013-04-23 01:32:00,
2013-04-22 20:37:00,29.3,22.4,30.40,NNW,338,20.0,-999.0,75,0.00,,,0.26,Wunderground v.1.15,2013-04-23 01:37:00,
2013-04-22 20:42:00,29.3,22.4,30.40,NNW,338,20.0,-999.0,75,0.00,,,0.26,Wunderground v.1.15,2013-04-23 01:42:00,
2013-04-22 20:47:00,29.2,22.9,30.45,NNW,338,20.0,-999.0,77,0.00,,,0.26,Wunderground v.1.15,2013-04-23 01:47:00,
2013-04-22 20:52:00,29.2,22.9,30.45,NNW,338,20.0,-999.0,77,0.00,,,0.26,Wunderground v.1.15,2013-04-23 01:52:00,
2013-04-22 20:57:00,29.2,22.9,30.45,NNW,338,20.0,-999.0,77,0.00,,,0.26,Wunderground v.1.15,2013-04-23 01:57:00,
2013-04-22 21:02:00,29.2,22.9,30.45,NNW,338,20.0,-999.0,77,0.00,,,0.26,Wunderground v.1.15,2013-04-23 02:02:00,
2013-04-22 21:07:00,29.2,22.9,30.45,NNW,338,20.0,-999.0,77,0.00,,,0.26,Wunderground v.1.15,2013-04-23 02:07:00,
2013-04-22 21:12:00,29.2,22.9,30.45,NNW,338,20.0,-999.0,77,0.00,,,0.26,Wunderground v.1.15,2013-04-23 02:12:00,
2013-04-22 21:17:00,29.3,22.4,30.50,NNW,338,20.0,-999.0,75,0.00,,,0.26,Wunderground v.1.15,2013-04-23 02:17:00,
2013-04-22 21:22:00,29.3,22.4,30.50,NNW,338,20.0,-999.0,75,0.00,,,0.26,Wunderground v.1.15,2013-04-23 02:22:00,
2013-04-22 21:27:00,29.3,22.4,30.50,NNW,338,20.0,-999.0,75,0.00,,,0.26,Wunderground v.1.15,2013-04-23 02:27:00,
2013-04-22 21:32:00,29.3,22.4,30.50,NNW,338,20.0,-999.0,75,0.00,,,0.26,Wunderground v.1.15,2013-04-23 02:32:00,
2013-04-22 21:37:00,29.3,22.4,30.50,NNW,338,20.0,-999.0,75,0.00,,,0.26,Wunderground v.1.15,2013-04-23 02:37:00,
2013-04-22 21:42:00,29.3,22.4,30.50,NNW,338,20.0,-999.0,75,0.00,,,0.26,Wunderground v.1.15,2013-04-23 02:42:00,
2013-04-22 21:47:00,29.1,21.8,30.45,NNW,338,20.0,-999.0,74,0.00,,,0.26,Wunderground v.1.15,2013-04-23 02:47:00,
2013-04-22 21:52:00,29.1,21.8,30.45,NNW,338,20.0,-999.0,74,0.00,,,0.26,Wunderground v.1.15,2013-04-23 02:52:00,
2013-04-22 21:57:00,29.1,21.8,30.45,NNW,338,20.0,-999.0,74,0.00,,,0.26,Wunderground v.1.15,2013-04-23 02:57:00,
2013-04-22 22:02:00,29.1,21.8,30.45,NNW,338,20.0,-999.0,74,0.00,,,0.26,Wunderground v.1.15,2013-04-23 03:02:00,
2013-04-22 22:07:00,29.1,21.8,30.45,NNW,338,20.0,-999.0,74,0.00,,,0.26,Wunderground v.1.15,2013-04-23 03:07:00,
2013-04-22 22:12:00,29.1,21.8,30.45,NNW,338,20.0,-999.0,74,0.00,,,0.26,Wunderground v.1.15,2013-04-23 03:12:00,
2013-04-22 22:17:00,28.9,22.0,30.50,NNW,338,20.0,-999.0,75,0.00,,,0.26,Wunderground v.1.15,2013-04-23 03:17:00,
2013-04-22 22:22:00,28.9,22.0,30.50,NNW,338,20.0,-999.0,75,0.00,,,0.26,Wunderground v.1.15,2013-04-23 03:22:00,
2013-04-22 22:27:00,28.9,22.0,30.50,NNW,338,20.0,-999.0,75,0.00,,,0.26,Wunderground v.1.15,2013-04-23 03:27:00,
2013-04-22 22:32:00,28.9,22.0,30.50,NNW,338,20.0,-999.0,75,0.00,,,0.26,Wunderground v.1.15,2013-04-23 03:32:00,
2013-04-22 22:37:00,28.9,22.0,30.50,NNW,338,20.0,-999.0,75,0.00,,,0.26,Wunderground v.1.15,2013-04-23 03:37:00,
2013-04-22 22:42:00,28.9,22.0,30.50,NNW,338,20.0,-999.0,75,0.00,,,0.26,Wunderground v.1.15,2013-04-23 03:42:00,
2013-04-22 22:47:00,28.8,22.2,30.51,NNW,338,16.0,-999.0,76,0.00,,,0.26,Wunderground v.1.15,2013-04-23 03:47:00,
2013-04-22 22:52:00,28.8,22.2,30.51,NNW,338,16.0,-999.0,76,0.00,,,0.26,Wunderground v.1.15,2013-04-23 03:52:00,
2013-04-22 22:57:00,28.8,22.2,30.51,NNW,338,16.0,-999.0,76,0.00,,,0.26,Wunderground v.1.15,2013-04-23 03:57:00,
2013-04-22 23:02:00,28.8,22.2,30.51,NNW,338,16.0,-999.0,76,0.00,,,0.26,Wunderground v.1.15,2013-04-23 04:02:00,
2013-04-22 23:07:00,28.8,22.2,30.51,NNW,338,16.0,-999.0,76,0.00,,,0.26,Wunderground v.1.15,2013-04-23 04:07:00,
2013-04-22 23:12:00,28.8,22.2,30.51,NNW,338,16.0,-999.0,76,0.00,,,0.26,Wunderground v.1.15,2013-04-23 04:12:00,
2013-04-22 23:17:00,28.5,21.9,30.52,NW,315,18.0,-999.0,76,0.00,,,0.26,Wunderground v.1.15,2013-04-23 04:17:00,
2013-04-22 23:22:00,28.5,21.9,30.52,NW,315,18.0,-999.0,76,0.00,,,0.26,Wunderground v.1.15,2013-04-23 04:22:00,
2013-04-22 23:27:00,28.5,21.9,30.52,NW,315,18.0,-999.0,76,0.00,,,0.26,Wunderground v.1.15,2013-04-23 04:27:00,
2013-04-22 23:32:00,28.5,21.9,30.52,NW,315,18.0,-999.0,76,0.00,,,0.26,Wunderground v.1.15,2013-04-23 04:32:00,
2013-04-22 23:37:00,28.5,21.9,30.52,NW,315,18.0,-999.0,76,0.00,,,0.26,Wunderground v.1.15,2013-04-23 04:37:00,
2013-04-22 23:42:00,28.5,21.9,30.52,NW,315,18.0,-999.0,76,0.00,,,0.26,Wunderground v.1.15,2013-04-23 04:42:00,
2013-04-22 23:47:00,28.0,21.4,30.48,NW,315,19.0,-999.0,76,0.00,,,0.26,Wunderground v.1.15,2013-04-23 04:47:00,
2013-04-22 23:52:00,28.0,21.4,30.48,NW,315,19.0,-999.0,76,0.00,,,0.26,Wunderground v.1.15,2013-04-23 04:52:00,
2013-04-22 23:57:00,28.0,21.4,30.48,NW,315,19.0,-999.0,76,0.00,,,0.26,Wunderground v.1.15,2013-04-23 04:57:00,